User: anonymous   Login
Location: Newark
(46.8000°N, 92.1000°W)
Time: 05:22:06
(UTC+00:00)
Language:

DOVE 4 - Orbit

View from above orbital plane
View from above orbital plane
View from above satellite
View from above satellite

Ground track
Ground track

The orbit data is extracted from the following two-line orbital elements,

1 39430U 13066Q   20330.78630851  .00000462  00000-0  91889-4 0  9992
2 39430  97.8028 259.6519 0151859  36.7244 324.4260 14.59476425373334
Epoch (UTC): 25 November 2020 18:52:17
Eccentricity: 0.0151859
inclination: 97.8028°
perigee height: 587 km
apogee height: 802 km
right ascension of ascending node: 259.6519°
argument of perigee: 36.7244°
revolutions per day: 14.59476425
mean anomaly at epoch: 324.4260°
orbit number at epoch: 37333

The dashed part of the orbit path shows where the satellite is in the earth's shadow,  

DLR